Temperature
18 18 18 18 18 19 19 19 19 19 18 17 16 16 15 15 14 14 13 13 13 13 13 13 12 12 12 12 11 11 11 11 10 10 10 9 8 8 8 7 7 6 6
17 17 17 18 18 18 18 19 19 19 18 17 17 17 16 15 14 14 13 13 13 13 13 12 12 12 12 11 11 11 10 10 10 10 9 8 8 7 7 7 7 6 5
17 17 17 17 17 17 17 18 18 18 18 17 16 15 14 14 14 13 13 13 13 13 13 12 12 12 11 11 11 10 10 10 9 9 9 8 7 7 7 6 5 5 5
17 17 17 17 17 17 17 17 17 18 18 17 16 16 15 14 14 14 13 13 13 13 12 12 11 11 11 11 10 10 10 9 9 9 8 7 6 6 6 5 5 4 4
17 17 17 17 17 17 17 17 17 17 17 17 16 16 15 15 14 14 13 13 12 12 12 11 11 11 11 10 10 10 9 9 8 8 7 6 5 4 3 4 4 4 3
17 17 17 17 16 16 17 17 17 17 17 16 15 15 15 14 14 14 12 12 12 12 11 11 11 10 10 10 10 9 9 8 8 7 6 6 4 3 3 2 3 3 3
16 16 16 16 15 15 16 16 16 16 16 15 14 14 13 13 14 14 12 12 12 11 11 11 10 10 10 9 9 9 8 8 7 6 6 5 4 3 2 2 1 1 2
15 15 15 15 14 15 15 15 15 15 15 14 13 12 11 12 13 13 12 11 12 11 11 10 10 9 9 9 9 8 8 7 6 6 5 4 3 3 2 1 -0 -1 -1
15 14 14 14 14 14 14 14 14 14 13 13 12 11 11 11 12 11 11 11 11 11 10 10 9 9 8 8 8 7 7 6 6 5 4 3 3 2 1 0 -1 -2 -4
14 14 13 13 13 13 13 14 13 13 12 12 11 10 10 10 11 10 10 10 11 10 10 9 9 8 8 7 7 7 6 5 5 4 3 3 2 1 1 -0 -1 -2 -4
13 13 12 12 12 12 12 13 13 12 12 11 10 10 10 10 10 10 10 10 10 10 9 9 8 8 7 7 6 6 5 4 4 3 2 2 1 0 -0 -1 -2 -3 -4
12 12 11 11 11 11 12 12 12 11 11 10 10 10 9 9 9 9 9 9 9 9 8 8 7 7 7 6 5 5 4 3 3 2 2 1 0 -0 -1 -2 -3 -4 -5
11 11 10 10 10 10 11 11 11 10 10 9 9 9 9 9 9 8 8 7 8 8 7 7 7 6 6 5 4 4 3 2 2 1 1 -0 -1 -1 -3 -4 -5 -6 -6
10 10 9 9 9 9 9 9 9 9 9 8 8 8 8 8 8 7 6 7 7 7 7 6 6 5 4 4 3 3 2 2 1 1 -0 -1 -2 -3 -4 -5 -6 -7 -8
9 9 9 8 8 8 8 8 8 8 7 7 7 7 6 7 6 6 5 6 6 6 6 5 5 4 3 3 2 2 1 1 1 -0 -1 -2 -3 -4 -6 -6 -7 -7 -8
8 8 8 7 7 7 7 7 6 6 6 6 5 5 5 5 5 5 5 5 5 5 4 4 3 3 2 2 1 1 1 0 -0 -1 -2 -3 -4 -5 -6 -7 -7 -8 -8
7 7 7 6 6 5 5 5 5 4 4 4 3 3 4 4 4 4 4 4 4 4 3 3 2 2 2 1 1 0 -0 -1 -1 -2 -3 -4 -5 -6 -7 -8 -8 -8 -9
5 5 5 5 4 4 4 3 3 2 2 2 2 2 3 3 4 4 4 3 3 2 2 2 1 1 1 1 -0 -1 -1 -2 -2 -3 -5 -6 -7 -7 -8 -8 -9 -9 -9
3 3 3 3 3 2 2 1 1 1 0 0 1 2 3 3 3 3 3 2 2 2 1 1 1 0 -0 -0 -1 -2 -2 -3 -4 -5 -6 -7 -8 -8 -8 -8 -9 -9 -9
2 2 2 1 1 0 0 0 -0 0 0 1 1 2 3 3 3 2 2 2 1 1 1 0 -0 -1 -1 -2 -2 -3 -4 -4 -5 -6 -6 -7 -8 -8 -9 -9 -9 -9 -9
0 0 0 -0 -0 -0 0 0 1 1 1 2 2 2 2 2 2 2 1 1 1 0 0 -0 -1 -2 -2 -3 -4 -5 -6 -7 -8 -8 -7 -8 -8 -9 -9 -9 -9 -9 -9
-0 -0 -0 -0 -0 0 1 1 1 1 2 2 2 2 2 2 1 1 1 0 0 -0 -1 -2 -2 -3 -4 -4 -5 -6 -7 -8 -9 -9 -9 -9 -9 -9 -9 -9 -9 -9 -9
0 0 0 0 0 1 2 3 2 2 2 2 2 1 1 1 1 0 -0 -0 -1 -1 -2 -3 -3 -4 -5 -6 -7 -7 -8 -8 -9 -9 -9 -9 -9 -9 -9 -9 -9 -9 -9
1 1 1 1 1 2 2 3 2 2 2 2 1 1 1 0 -0 -1 -1 -1 -2 -2 -3 -3 -4 -5 -5 -6 -7 -8 -8 -8 -9 -9 -9 -9 -9 -9 -9 -9 -9 -9 -9
1 2 3 3 2 2 2 2 2 2 2 1 1 0 -0 -1 -1 -1 -2 -2 -3 -3 -4 -4 -5 -6 -6 -7 -8 -9 -9 -9 -10 -10 -10 -9 -9 -9 -9 -9 -9 -9 -8
2 3 3 3 2 2 2 1 1 1 1 0 -0 -1 -1 -1 -1 -2 -2 -3 -4 -4 -5 -6 -6 -7 -8 -9 -9 -9 -9 -10 -10 -10 -10 -10 -10 -10 -10 -9 -9 -9 -8
Wind_Speed
12 11 11 10 10 10 11 11 12 14 12 11 12 11 10 8 8 8 11 13 14 15 11 7 8 7 7 6 7 5 5 3 3 3 3 1 1 1 2 2 1 1 3
14 13 13 12 12 12 12 11 11 13 14 12 11 9 7 5 5 6 9 12 14 14 11 9 8 8 7 7 7 5 4 2 4 2 2 3 2 2 2 2 2 1 1
15 13 13 13 13 14 13 12 12 11 13 13 10 8 6 5 4 6 6 8 12 12 11 10 9 9 7 7 7 5 5 4 2 4 3 3 1 4 4 3 1 1 1
12 12 12 13 13 13 13 13 12 11 12 16 16 16 12 8 6 6 7 9 9 10 13 12 10 9 8 8 7 6 4 4 3 2 2 2 3 1 4 4 3 2 3
11 10 10 10 10 9 10 12 12 11 12 15 17 17 11 8 9 10 12 9 8 9 11 13 10 10 8 8 8 6 5 3 3 2 1 1 1 2 3 5 5 4 4
7 6 6 6 7 7 7 8 11 10 11 14 15 15 15 15 16 15 14 11 9 9 10 11 10 9 8 8 8 7 6 5 4 3 2 1 0 1 1 4 4 5 5
3 4 5 5 5 6 7 7 10 10 12 14 14 13 14 17 18 17 15 15 12 10 10 12 10 10 8 7 6 6 6 5 4 2 1 1 1 1 1 3 5 5 4
4 4 5 5 5 7 7 7 8 9 11 13 13 12 13 13 13 13 14 14 12 10 11 12 12 10 9 8 6 6 5 5 3 2 2 0 2 1 1 2 3 5 4
5 4 4 5 6 7 7 8 9 9 11 12 12 12 14 14 14 13 13 11 12 13 13 14 13 10 8 7 7 5 5 4 3 2 1 1 2 1 1 2 2 3 5
5 3 3 4 5 6 5 7 9 9 10 12 12 11 13 14 15 14 13 13 14 14 15 14 13 11 9 8 6 6 5 3 2 2 1 1 2 2 2 2 3 4 6
3 1 2 4 6 7 5 4 8 10 11 12 12 13 13 14 15 13 13 13 14 16 15 15 13 10 9 7 6 5 5 2 1 1 2 3 2 2 2 3 4 5 6
4 2 0 2 5 6 4 3 7 11 12 13 14 13 13 14 14 14 13 13 15 14 14 13 12 10 8 7 6 5 4 2 2 2 2 3 3 3 3 4 5 5 6
6 2 0 1 3 3 2 3 8 12 14 14 14 14 14 14 15 15 14 14 15 14 13 12 11 9 8 6 5 3 2 1 2 3 3 4 3 4 4 5 5 5 8
8 3 1 1 1 1 3 7 12 14 14 14 14 14 14 14 15 14 14 14 14 14 13 12 10 9 7 6 4 3 2 3 3 4 4 4 5 5 5 5 6 7 7
7 4 1 2 3 4 7 11 12 13 13 14 13 13 14 15 15 15 14 14 13 14 12 11 9 8 6 5 5 4 4 5 5 5 5 5 7 10 9 8 6 7 7
4 2 3 6 6 7 10 12 12 11 12 13 13 15 16 16 16 15 14 14 13 12 11 9 8 6 5 6 4 3 4 5 6 7 6 6 7 11 15 16 16 15 12
3 3 6 7 8 9 11 11 11 11 12 13 14 15 17 17 16 16 15 14 12 10 9 7 6 6 6 5 2 4 4 5 6 7 6 6 7 11 6 11 16 15 20
5 7 9 11 11 11 12 12 12 13 14 14 14 15 16 17 15 15 14 11 9 8 7 6 5 4 5 5 2 6 5 6 7 7 6 6 6 8 11 8 7 8 11
8 10 11 12 12 12 13 14 14 14 14 14 14 14 15 16 15 14 11 9 8 7 6 5 4 2 3 4 2 6 4 5 7 7 7 8 7 15 18 10 9 11 11
11 12 12 14 13 13 14 16 15 15 15 14 14 13 13 14 13 11 9 7 7 6 5 3 2 1 1 1 3 6 2 5 5 6 7 13 14 18 19 12 11 14 12
12 12 13 13 12 13 14 16 15 14 14 14 13 13 12 12 11 9 7 7 6 5 3 2 1 1 1 1 4 7 3 4 5 6 6 7 18 20 22 21 12 16 17
11 12 12 13 12 12 14 15 15 13 13 14 14 12 10 9 9 8 7 6 5 3 2 1 1 2 2 2 5 8 10 10 6 6 6 8 20 23 24 18 18 22 19
10 10 12 14 12 11 12 16 13 12 13 14 13 11 10 9 7 7 6 4 4 3 3 3 3 3 3 5 8 10 13 16 9 8 15 19 22 21 15 17 20 17 9
9 10 12 14 13 11 11 12 12 12 13 13 11 9 8 7 7 6 5 4 4 4 4 4 4 4 4 4 4 4 7 11 10 8 13 19 20 16 15 14 12 8 8
9 10 12 14 14 12 12 11 10 11 13 11 9 8 7 6 6 5 4 4 4 4 3 2 3 4 4 7 13 11 7 6 8 11 6 6 7 6 7 7 7 7 9
10 11 13 14 12 11 11 10 9 10 11 9 7 6 5 5 4 4 3 2 1 1 2 3 4 5 8 13 15 17 17 18 18 12 6 6 7 8 10 11 11 11 11
Wind_Direction
250 245 238 239 242 236 226 213 189 181 178 177 179 186 191 182 170 164 153 146 143 139 139 138 132 129 132 136 130 122 100 47 357 0 349 327 187 164 169 160 146 249 211
244 243 238 229 228 233 231 222 207 186 182 179 178 181 171 156 140 134 134 136 137 140 143 138 135 130 126 116 112 115 115 74 32 42 29 12 342 313 231 172 198 238 10
244 244 241 234 227 224 226 225 217 199 182 168 159 145 114 96 105 118 123 125 133 138 139 134 129 127 124 125 122 124 127 136 71 54 84 96 312 321 318 274 213 201 284
243 243 242 241 233 225 219 219 216 207 182 166 164 164 169 163 162 141 127 125 129 137 137 133 130 126 123 125 124 115 115 123 133 106 67 108 121 80 316 319 323 337 317
237 242 240 237 239 232 219 212 207 200 177 168 166 169 170 148 135 132 134 134 138 139 137 133 131 129 129 127 122 122 111 103 117 119 106 85 114 197 215 278 299 317 312
245 260 267 257 248 241 234 214 197 186 167 163 164 167 167 156 151 151 151 148 146 140 134 131 129 126 127 127 126 123 116 103 95 86 84 97 163 300 267 277 299 296 290
299 298 301 301 287 259 236 215 190 177 164 161 164 168 167 160 159 159 157 154 154 150 143 137 132 128 127 127 124 126 127 119 118 115 78 42 344 298 282 282 291 295 298
291 306 311 306 292 270 239 206 190 175 165 163 165 168 160 155 157 158 158 158 156 149 141 135 130 128 130 132 126 126 131 125 136 152 132 71 296 299 283 276 302 306 292
259 279 303 308 302 281 243 199 185 174 165 161 160 161 151 149 151 150 149 149 146 144 137 133 131 131 132 132 137 138 137 139 156 157 136 224 265 279 284 286 270 268 290
246 254 301 318 315 302 263 193 179 170 160 156 153 149 142 141 142 144 147 147 145 142 138 134 132 131 129 130 126 123 121 125 149 144 144 269 274 292 290 281 275 263 274
296 312 337 335 327 313 285 195 173 156 148 141 133 131 131 133 137 139 140 141 140 139 136 134 132 130 130 128 126 131 134 150 221 229 227 253 269 275 280 290 286 276 273
287 281 334 332 313 304 290 190 154 139 132 126 124 124 125 128 131 132 132 135 134 132 130 129 126 126 123 122 127 132 137 187 247 277 288 283 286 287 286 281 275 276 276
279 284 268 296 292 292 282 127 119 117 116 117 120 123 126 128 129 130 131 131 128 125 121 118 117 114 111 106 99 91 71 331 291 279 272 272 279 282 279 282 284 285 291
286 291 271 243 262 31 88 100 101 106 111 115 122 126 127 127 126 125 125 123 121 118 114 110 108 107 106 103 88 59 357 321 308 298 283 271 262 261 265 277 273 278 282
283 280 238 150 118 99 93 95 97 101 110 118 123 124 123 121 119 119 118 115 112 109 107 107 105 105 112 99 70 29 357 344 326 311 296 285 287 288 286 283 270 281 283
290 290 130 122 115 105 99 97 98 102 112 119 123 122 121 119 117 115 112 107 105 104 105 107 111 114 111 100 69 15 349 333 319 307 301 301 297 295 301 303 304 301 299
343 83 106 105 103 101 103 104 105 107 113 118 121 121 120 118 116 115 111 109 109 108 109 116 123 124 126 119 56 350 340 312 297 292 293 297 298 307 303 296 298 297 298
54 81 91 91 90 94 98 101 103 107 111 114 116 117 117 114 112 110 109 109 112 116 119 120 117 117 143 134 47 345 341 309 297 293 290 289 289 292 297 284 289 282 290
68 80 87 93 94 97 102 106 106 108 110 111 111 112 113 114 113 112 113 116 116 116 119 122 121 109 126 140 32 349 332 308 306 310 318 316 298 302 307 311 302 295 291
74 85 91 95 96 99 104 107 108 108 109 110 110 110 111 111 112 114 113 111 112 115 116 114 112 97 97 132 349 338 323 312 312 313 311 312 310 310 314 311 301 300 298
81 88 93 97 102 107 109 110 110 111 114 114 112 109 108 109 110 107 104 105 106 109 113 127 214 222 199 312 320 322 316 289 294 298 299 302 312 312 311 309 301 298 302
94 100 104 106 108 112 113 111 111 116 116 112 107 103 100 103 102 99 96 93 92 89 84 34 350 11 34 349 312 316 319 320 310 304 298 301 310 311 311 311 306 306 310
95 99 104 104 102 104 111 111 111 112 109 104 101 98 94 91 93 94 91 83 71 58 39 23 14 3 10 343 336 335 329 324 320 307 310 312 313 314 310 307 311 315 310
88 93 96 96 94 92 95 102 106 106 105 101 98 95 93 87 79 77 71 64 60 48 34 23 13 0 352 346 351 329 314 313 310 302 305 313 313 312 313 315 315 309 299
88 93 99 99 97 96 93 94 98 102 99 95 91 87 85 88 81 75 70 64 72 83 52 15 3 349 329 318 322 322 310 304 298 309 305 306 307 309 315 311 307 306 307
99 101 100 99 97 93 88 83 86 93 98 94 86 82 80 75 71 63 48 93 88 45 346 322 319 315 314 319 323 321 318 318 319 320 312 310 313 316 315 315 313 310 308
Height
1445 1446 1447 1449 1450 1453 1456 1459 1461 1462 1466 1469 1471 1474 1478 1482 1486 1489 1492 1495 1498 1501 1504 1507 1509 1511 1512 1514 1515 1515 1516 1515 1515 1514 1513 1512 1511 1511 1510 1510 1510 1509 1508
1438 1439 1441 1442 1443 1445 1447 1451 1454 1455 1458 1460 1464 1468 1472 1477 1481 1484 1487 1490 1493 1497 1500 1503 1505 1507 1509 1511 1512 1513 1513 1513 1513 1512 1510 1510 1511 1509 1508 1508 1507 1507 1505
1430 1431 1433 1435 1436 1438 1440 1443 1446 1449 1451 1454 1458 1462 1467 1470 1474 1477 1480 1484 1488 1492 1496 1499 1502 1504 1506 1508 1509 1510 1511 1510 1510 1509 1510 1509 1508 1507 1506 1505 1504 1503 1502
1423 1425 1426 1427 1429 1431 1434 1436 1440 1443 1446 1447 1449 1453 1457 1460 1464 1468 1472 1477 1483 1488 1492 1495 1498 1500 1503 1505 1507 1507 1508 1508 1507 1507 1506 1507 1506 1505 1503 1502 1501 1500 1499
1418 1419 1419 1420 1422 1424 1426 1429 1433 1436 1438 1439 1441 1446 1451 1454 1458 1462 1467 1473 1478 1483 1487 1491 1494 1497 1499 1502 1503 1504 1505 1505 1504 1504 1503 1502 1502 1501 1500 1497 1495 1495 1493
1413 1414 1414 1415 1416 1417 1419 1421 1424 1428 1431 1433 1435 1439 1444 1446 1450 1455 1460 1466 1472 1477 1482 1486 1490 1493 1496 1498 1500 1501 1502 1502 1501 1501 1500 1500 1499 1498 1497 1494 1490 1487 1485
1410 1410 1411 1411 1411 1412 1413 1415 1417 1420 1423 1427 1430 1435 1438 1440 1444 1448 1453 1459 1465 1470 1476 1481 1485 1489 1492 1495 1496 1498 1498 1498 1498 1498 1497 1496 1495 1494 1493 1490 1486 1482 1478
1407 1407 1408 1408 1408 1408 1408 1409 1411 1414 1418 1421 1426 1431 1434 1436 1439 1444 1449 1455 1460 1466 1471 1476 1481 1485 1489 1491 1493 1494 1494 1494 1494 1494 1493 1492 1492 1490 1489 1486 1483 1477 1472
1403 1404 1405 1405 1404 1404 1404 1405 1407 1410 1413 1417 1422 1427 1430 1432 1435 1440 1446 1451 1456 1461 1467 1472 1478 1482 1485 1488 1489 1490 1490 1490 1490 1489 1488 1488 1487 1485 1484 1482 1479 1476 1468
1400 1400 1401 1401 1401 1400 1400 1400 1402 1405 1409 1414 1418 1422 1426 1429 1433 1437 1442 1447 1452 1458 1463 1469 1475 1479 1482 1484 1486 1486 1487 1487 1486 1485 1484 1483 1482 1480 1478 1476 1474 1471 1467
1396 1396 1397 1397 1397 1396 1396 1396 1398 1401 1405 1410 1414 1418 1422 1426 1431 1435 1439 1444 1449 1455 1461 1467 1472 1476 1479 1481 1482 1483 1483 1482 1482 1480 1479 1478 1476 1474 1472 1470 1468 1465 1462
1393 1392 1392 1393 1393 1393 1393 1393 1395 1398 1402 1406 1411 1415 1419 1424 1428 1433 1438 1443 1448 1454 1460 1465 1470 1474 1476 1478 1479 1479 1479 1478 1477 1476 1474 1473 1471 1469 1467 1464 1461 1459 1456
1389 1388 1388 1389 1389 1389 1390 1391 1392 1395 1399 1404 1408 1412 1417 1422 1426 1431 1437 1442 1447 1453 1459 1464 1468 1471 1473 1475 1475 1475 1475 1474 1472 1471 1469 1467 1465 1463 1461 1458 1455 1453 1449
1385 1385 1384 1385 1386 1387 1388 1389 1390 1393 1397 1402 1407 1411 1415 1420 1425 1431 1436 1442 1447 1453 1457 1462 1466 1468 1470 1471 1472 1471 1471 1469 1468 1466 1464 1462 1460 1457 1455 1452 1449 1446 1443
1382 1382 1381 1382 1383 1385 1386 1387 1390 1393 1397 1402 1407 1411 1415 1419 1425 1430 1436 1442 1448 1453 1457 1461 1464 1466 1467 1468 1468 1467 1466 1465 1463 1461 1459 1457 1455 1452 1450 1447 1444 1441 1437
1379 1379 1379 1380 1382 1384 1385 1387 1390 1394 1399 1403 1407 1410 1414 1419 1425 1431 1437 1443 1448 1453 1456 1460 1462 1463 1464 1464 1463 1463 1462 1460 1458 1456 1454 1451 1449 1446 1444 1442 1439 1436 1432
1378 1378 1378 1380 1382 1384 1386 1389 1392 1396 1400 1404 1407 1410 1415 1420 1426 1433 1439 1444 1448 1453 1456 1459 1460 1460 1461 1460 1459 1458 1457 1455 1453 1450 1448 1445 1443 1441 1437 1434 1432 1429 1426
1379 1379 1379 1380 1382 1385 1387 1390 1394 1398 1402 1405 1408 1412 1417 1422 1429 1435 1440 1445 1449 1452 1455 1456 1457 1457 1457 1457 1455 1454 1452 1450 1448 1445 1443 1440 1437 1435 1432 1429 1425 1421 1418
1381 1381 1381 1382 1385 1387 1390 1392 1396 1400 1404 1408 1412 1416 1421 1426 1432 1437 1441 1445 1449 1452 1453 1454 1455 1454 1454 1453 1451 1449 1447 1445 1443 1440 1438 1435 1432 1429 1427 1423 1418 1413 1409
1383 1383 1384 1386 1388 1391 1393 1395 1399 1404 1407 1412 1416 1421 1426 1430 1434 1439 1443 1446 1449 1451 1452 1452 1452 1452 1451 1449 1447 1445 1442 1440 1437 1435 1432 1429 1426 1424 1421 1417 1412 1406 1402
1388 1388 1388 1390 1393 1395 1398 1400 1404 1408 1412 1417 1421 1425 1429 1434 1438 1442 1445 1447 1449 1450 1450 1450 1450 1449 1448 1446 1444 1441 1438 1435 1432 1429 1426 1423 1420 1418 1415 1411 1407 1402 1397
1393 1393 1393 1395 1398 1401 1403 1406 1409 1414 1418 1422 1426 1430 1435 1438 1442 1444 1446 1447 1448 1448 1448 1448 1447 1446 1444 1443 1440 1438 1435 1432 1429 1425 1421 1418 1416 1413 1409 1405 1401 1397 1393
1400 1401 1401 1402 1406 1409 1411 1412 1416 1420 1424 1428 1431 1435 1438 1441 1443 1444 1445 1446 1447 1446 1446 1445 1444 1443 1441 1439 1436 1434 1431 1428 1424 1421 1417 1414 1411 1407 1403 1400 1396 1392 1388
1406 1407 1408 1409 1412 1416 1418 1420 1423 1426 1430 1432 1435 1438 1440 1442 1444 1445 1445 1445 1445 1445 1444 1442 1441 1439 1437 1435 1432 1429 1426 1422 1419 1416 1412 1409 1406 1402 1399 1395 1391 1387 1383
1411 1412 1413 1415 1418 1421 1424 1426 1429 1432 1434 1436 1438 1440 1442 1443 1444 1445 1445 1444 1444 1443 1442 1440 1438 1435 1433 1431 1428 1425 1421 1418 1415 1412 1408 1404 1401 1397 1393 1389 1386 1382 1378
1414 1416 1418 1420 1423 1426 1428 1431 1434 1436 1437 1439 1441 1442 1443 1444 1444 1444 1444 1443 1442 1441 1439 1437 1435 1432 1430 1427 1424 1421 1418 1415 1412 1408 1404 1400 1397 1393 1389 1385 1381 1377 1372